Location: Ipswich
(52.0579°N, 1.1528°E)
Time: 09:26:22
(UTC+01:00)

ISS - Pass Details

Date: 14 May 2026
Orbit: 414 x 424 km, 51.6° (Epoch: 8 May)

Event Time Altitude Azimuth Distance (km) Brightness Sun altitude
Rises 21:30:42 0° 256° (WSW) 2,350 0.6 -6.8°
Reaches altitude 10° 21:32:47 10° 255° (WSW) 1,488 -0.5 -7.0°
Maximum altitude 21:36:07 76° 171° (S) 433 -3.8 -7.4°
Drops below altitude 10° 21:39:28 10° 85° (E) 1,493 -1.3 -7.8°
Enters shadow 21:41:26 - 84° (E) 2,305 -0.4 -8.0°
